This is the latest recevied weather packets stored in our database for station/object KD8DLP-13. If no packets are shown the sender has not sent any weather packets the latest 10 day(s).
| Time | Temp. | Humidity | Pressure | Rain* | Wind** | Luminosity | Snow |
|---|---|---|---|---|---|---|---|
| 1778015579 | 12.78° C | 44% | 1009.4 hPa | 0 mm | - | 195 W/m² | - |
| 1778015275 | 13.33° C | 42% | 1009.5 hPa | 0 mm | - | 219 W/m² | - |
| 1778014972 | 13.33° C | 43% | 1009.8 hPa | 0 mm | - | 326 W/m² | - |
| 1778014669 | 12.78° C | 43% | 1009.8 hPa | 0 mm | - | 323 W/m² | - |
| 1778014367 | 12.78° C | 42% | 1009.9 hPa | 0 mm | - | 286 W/m² | - |
| 1778014063 | 12.78° C | 43% | 1009.8 hPa | 0 mm | - | 308 W/m² | - |
| 1778013762 | 12.78° C | 42% | 1009.8 hPa | 0 mm | - | 326 W/m² | - |
| 1778013459 | 12.78° C | 43% | 1009.6 hPa | 0 mm | - | 343 W/m² | - |
| 1778013156 | 13.33° C | 42% | 1009.9 hPa | 0 mm | - | 326 W/m² | - |
| 1778012851 | 12.78° C | 43% | 1009.6 hPa | 0 mm | - | 315 W/m² | - |
| 1778012548 | 13.33° C | 41% | 1010.2 hPa | 0 mm | - | 317 W/m² | - |
| 1778012244 | 13.89° C | 40% | 1010.2 hPa | 0 mm | - | 418 W/m² | - |
| 1778011942 | 13.89° C | 41% | 1010 hPa | 0 mm | - | 341 W/m² | - |
| 1778011640 | 15° C | 40% | 1010.2 hPa | 0 mm | - | 509 W/m² | - |
| 1778011337 | 14.44° C | 39% | 1010.1 hPa | 0 mm | - | 485 W/m² | - |
| 1778011032 | 15° C | 39% | 1010.2 hPa | 0 mm | - | 380 W/m² | - |
| 1778010730 | 14.44° C | 40% | 1010 hPa | 0 mm | - | 504 W/m² | - |
| 1778010427 | 14.44° C | 38% | 1009.6 hPa | 0 mm | - | 419 W/m² | - |
| 1778010123 | 15.56° C | 38% | 1009.8 hPa | 0 mm | - | 359 W/m² | - |
| 1778009819 | 14.44° C | 41% | 1009.9 hPa | 0 mm | - | 731 W/m² | - |
| 1778009517 | 14.44° C | 40% | 1009.8 hPa | 0 mm | - | 374 W/m² | - |
| 1778009215 | 14.44° C | 39% | 1009.8 hPa | 0 mm | - | 490 W/m² | - |
| 1778008912 | 14.44° C | 40% | 1009.9 hPa | 0 mm | - | 511 W/m² | - |
| 1778008610 | 14.44° C | 41% | 1009.8 hPa | 0 mm | - | 392 W/m² | - |
| 1778008308 | 15° C | 41% | 1009.5 hPa | 0 mm | - | 548 W/m² | - |
* Rain latest hour (hover to see other rain measurements)
** Current wind speed in m/s (hover to see current wind gust speed)